iso_date,epoch_date,Year,Hour,Min,DOY,POS_DOY,Lat,Lon,BP,Ts,Ta,has_bp,has_ts,has_ta,BuoyID,Buoy_Type,Buoy_Owner,Logistics,Hemisphere
2021-09-08T16:00:02Z,1631116803,2021,16,0,251.6667,251.6667,89.911,138.109,1027.6,35.95,-999.0,yes,yes,no,300234068485020,SVP-B,AOML/USIABP,NABOS,North
2021-09-08T16:59:57Z,1631120397,2021,17,0,251.7083,251.7083,89.915,140.302,1027.6,35.95,-999.0,yes,yes,no,300234068485020,SVP-B,AOML/USIABP,NABOS,North
2021-09-08T18:00:00Z,1631124000,2021,18,0,251.75,251.75,89.917,143.376,1027.6,35.95,-999.0,yes,yes,no,300234068485020,SVP-B,AOML/USIABP,NABOS,North
2021-09-08T19:00:02Z,1631127603,2021,19,0,251.7917,251.7917,89.919,146.23,1027.8,35.95,-999.0,yes,yes,no,300234068485020,SVP-B,AOML/USIABP,NABOS,North
2021-09-08T21:00:00Z,1631134800,2021,21,0,251.875,251.875,89.918,151.257,1028.2,35.95,-999.0,yes,yes,no,300234068485020,SVP-B,AOML/USIABP,NABOS,North
2021-09-08T22:00:02Z,1631138403,2021,22,0,251.9167,251.9167,89.918,152.386,1028.5,35.95,-999.0,yes,yes,no,300234068485020,SVP-B,AOML/USIABP,NABOS,North
2021-09-08T22:59:57Z,1631141997,2021,23,0,251.9583,251.9583,89.918,152.902,1028.6,35.95,-999.0,yes,yes,no,300234068485020,SVP-B,AOML/USIABP,NABOS,North
2021-09-09T00:00:00Z,1631145600,2021,0,0,252.0,252.0,89.919,153.14,1028.5,35.95,-999.0,yes,yes,no,300234068485020,SVP-B,AOML/USIABP,NABOS,North
2021-09-09T01:00:02Z,1631149203,2021,1,0,252.0417,252.0417,89.921,153.379,1028.6,35.95,-999.0,yes,yes,no,300234068485020,SVP-B,AOML/USIABP,NABOS,North
2021-09-09T01:59:57Z,1631152797,2021,2,0,252.0833,252.0833,89.925,153.994,1028.5,35.95,-999.0,yes,yes,no,300234068485020,SVP-B,AOML/USIABP,NABOS,North
2021-09-09T03:00:00Z,1631156400,2021,3,0,252.125,252.125,89.929,155.479,1028.7,35.95,-999.0,yes,yes,no,300234068485020,SVP-B,AOML/USIABP,NABOS,North
2021-09-09T04:00:02Z,1631160003,2021,4,0,252.1667,252.1667,89.933,158.193,1028.7,35.95,-999.0,yes,yes,no,300234068485020,SVP-B,AOML/USIABP,NABOS,North
2021-09-09T04:59:57Z,1631163597,2021,5,0,252.2083,252.2083,89.937,162.188,1028.6,35.95,-999.0,yes,yes,no,300234068485020,SVP-B,AOML/USIABP,NABOS,North
2021-09-09T06:00:00Z,1631167200,2021,6,0,252.25,252.25,89.938,167.056,1028.6,35.95,-999.0,yes,yes,no,300234068485020,SVP-B,AOML/USIABP,NABOS,North
2021-09-09T07:00:02Z,1631170803,2021,7,0,252.2917,252.2917,89.939,171.766,1028.5,35.95,-999.0,yes,yes,no,300234068485020,SVP-B,AOML/USIABP,NABOS,North
2021-09-09T07:59:57Z,1631174397,2021,8,0,252.3333,252.3333,89.938,175.332,1028.8,35.95,-999.0,yes,yes,no,300234068485020,SVP-B,AOML/USIABP,NABOS,North
2021-09-09T09:00:00Z,1631178000,2021,9,0,252.375,252.375,89.937,177.691,1029.0,35.95,-999.0,yes,yes,no,300234068485020,SVP-B,AOML/USIABP,NABOS,North
2021-09-09T10:00:02Z,1631181603,2021,10,0,252.4167,252.4167,89.937,179.068,1028.9,35.95,-999.0,yes,yes,no,300234068485020,SVP-B,AOML/USIABP,NABOS,North
2021-09-09T10:59:57Z,1631185197,2021,11,0,252.4583,252.4583,89.937,179.591,1029.1,35.95,-999.0,yes,yes,no,300234068485020,SVP-B,AOML/USIABP,NABOS,North
2021-09-09T12:00:00Z,1631188800,2021,12,0,252.5,252.5,89.939,179.935,1029.2,35.95,-999.0,yes,yes,no,300234068485020,SVP-B,AOML/USIABP,NABOS,North
2021-09-09T13:00:02Z,1631192403,2021,13,0,252.5417,252.5417,89.942,-179.077,1029.2,35.95,-999.0,yes,yes,no,300234068485020,SVP-B,AOML/USIABP,NABOS,North
2021-09-09T13:59:57Z,1631195997,2021,14,0,252.5833,252.5833,89.946,-177.255,1029.3,35.95,-999.0,yes,yes,no,300234068485020,SVP-B,AOML/USIABP,NABOS,North
2021-09-09T15:00:00Z,1631199600,2021,15,0,252.625,252.625,89.949,-174.139,1029.2,35.95,-999.0,yes,yes,no,300234068485020,SVP-B,AOML/USIABP,NABOS,North
2021-09-09T16:00:02Z,1631203203,2021,16,0,252.6667,252.6667,89.951,-169.606,1029.1,35.95,-999.0,yes,yes,no,300234068485020,SVP-B,AOML/USIABP,NABOS,North
2021-09-09T16:59:57Z,1631206797,2021,17,0,252.7083,252.7083,89.952,-164.609,1029.2,35.95,-999.0,yes,yes,no,300234068485020,SVP-B,AOML/USIABP,NABOS,North
2021-09-09T18:00:00Z,1631210400,2021,18,0,252.75,252.75,89.952,-160.045,1029.3,35.95,-999.0,yes,yes,no,300234068485020,SVP-B,AOML/USIABP,NABOS,North
2021-09-09T19:00:02Z,1631214003,2021,19,0,252.7917,252.7917,89.95,-156.224,1029.4,35.95,-999.0,yes,yes,no,300234068485020,SVP-B,AOML/USIABP,NABOS,North
2021-09-09T19:59:57Z,1631217597,2021,20,0,252.8333,252.8333,89.948,-154.357,1029.5,35.95,-999.0,yes,yes,no,300234068485020,SVP-B,AOML/USIABP,NABOS,North
2021-09-09T21:00:00Z,1631221200,2021,21,0,252.875,252.875,89.947,-153.641,1029.6,35.95,-999.0,yes,yes,no,300234068485020,SVP-B,AOML/USIABP,NABOS,North
2021-09-09T22:00:02Z,1631224803,2021,22,0,252.9167,252.9167,89.947,-153.594,1029.7,35.95,-999.0,yes,yes,no,300234068485020,SVP-B,AOML/USIABP,NABOS,North
2021-09-09T22:59:57Z,1631228397,2021,23,0,252.9583,252.9583,89.948,-153.86,1029.7,35.95,-999.0,yes,yes,no,300234068485020,SVP-B,AOML/USIABP,NABOS,North
2021-09-10T00:00:00Z,1631232000,2021,0,0,253.0,253.0,89.95,-153.667,1029.7,35.95,-999.0,yes,yes,no,300234068485020,SVP-B,AOML/USIABP,NABOS,North
2021-09-10T01:00:02Z,1631235603,2021,1,0,253.0417,253.0417,89.953,-152.482,1029.4,35.95,-999.0,yes,yes,no,300234068485020,SVP-B,AOML/USIABP,NABOS,North
2021-09-10T01:59:57Z,1631239197,2021,2,0,253.0833,253.0833,89.957,-149.863,1029.3,35.95,-999.0,yes,yes,no,300234068485020,SVP-B,AOML/USIABP,NABOS,North
2021-09-10T03:00:00Z,1631242800,2021,3,0,253.125,253.125,89.96,-145.728,1029.2,35.95,-999.0,yes,yes,no,300234068485020,SVP-B,AOML/USIABP,NABOS,North
2021-09-10T04:00:02Z,1631246403,2021,4,0,253.1667,253.1667,89.962,-140.449,1028.7,35.95,-999.0,yes,yes,no,300234068485020,SVP-B,AOML/USIABP,NABOS,North
2021-09-10T04:59:57Z,1631249997,2021,5,0,253.2083,253.2083,89.963,-134.82,1028.7,35.95,-999.0,yes,yes,no,300234068485020,SVP-B,AOML/USIABP,NABOS,North
2021-09-10T06:00:00Z,1631253600,2021,6,0,253.25,253.25,89.963,-130.276,1028.5,35.95,-999.0,yes,yes,no,300234068485020,SVP-B,AOML/USIABP,NABOS,North
2021-09-10T07:00:02Z,1631257203,2021,7,0,253.2917,253.2917,89.963,-126.919,1028.3,35.95,-999.0,yes,yes,no,300234068485020,SVP-B,AOML/USIABP,NABOS,North
2021-09-10T07:59:57Z,1631260797,2021,8,0,253.3333,253.3333,89.963,-124.207,1028.4,35.95,-999.0,yes,yes,no,300234068485020,SVP-B,AOML/USIABP,NABOS,North
2021-09-10T09:00:00Z,1631264400,2021,9,0,253.375,253.375,89.964,-122.02,1028.3,35.95,-999.0,yes,yes,no,300234068485020,SVP-B,AOML/USIABP,NABOS,North
2021-09-10T10:00:02Z,1631268003,2021,10,0,253.4167,253.4167,89.965,-119.55,1028.1,35.95,-999.0,yes,yes,no,300234068485020,SVP-B,AOML/USIABP,NABOS,North
2021-09-10T10:59:57Z,1631271597,2021,11,0,253.4583,253.4583,89.968,-116.245,1028.0,35.95,-999.0,yes,yes,no,300234068485020,SVP-B,AOML/USIABP,NABOS,North
2021-09-10T13:00:02Z,1631278803,2021,13,0,253.5417,253.5417,89.972,-101.116,1027.5,35.95,-999.0,yes,yes,no,300234068485020,SVP-B,AOML/USIABP,NABOS,North
2021-09-10T13:59:57Z,1631282397,2021,14,0,253.5833,253.5833,89.973,-89.738,1027.2,35.95,-999.0,yes,yes,no,300234068485020,SVP-B,AOML/USIABP,NABOS,North
2021-09-10T15:00:00Z,1631286000,2021,15,0,253.625,253.625,89.971,-78.219,1026.8,35.95,-999.0,yes,yes,no,300234068485020,SVP-B,AOML/USIABP,NABOS,North
2021-09-10T16:00:02Z,1631289603,2021,16,0,253.6667,253.6667,89.969,-69.302,1026.8,35.95,-999.0,yes,yes,no,300234068485020,SVP-B,AOML/USIABP,NABOS,North
2021-09-10T16:59:57Z,1631293197,2021,17,0,253.7083,253.7083,89.965,-63.209,1026.5,35.95,-999.0,yes,yes,no,300234068485020,SVP-B,AOML/USIABP,NABOS,North
2021-09-10T18:00:00Z,1631296800,2021,18,0,253.75,253.75,89.962,-59.26,1026.2,35.95,-999.0,yes,yes,no,300234068485020,SVP-B,AOML/USIABP,NABOS,North
2021-09-10T19:00:02Z,1631300403,2021,19,0,253.7917,253.7917,89.96,-56.34,1026.0,35.95,-999.0,yes,yes,no,300234068485020,SVP-B,AOML/USIABP,NABOS,North
2021-09-10T19:59:57Z,1631303997,2021,20,0,253.8333,253.8333,89.959,-53.451,1026.0,35.95,-999.0,yes,yes,no,300234068485020,SVP-B,AOML/USIABP,NABOS,North
2021-09-10T21:00:00Z,1631307600,2021,21,0,253.875,253.875,89.958,-50.133,1025.6,35.95,-999.0,yes,yes,no,300234068485020,SVP-B,AOML/USIABP,NABOS,North
2021-09-10T22:00:02Z,1631311203,2021,22,0,253.9167,253.9167,89.957,-45.613,1025.5,35.95,-999.0,yes,yes,no,300234068485020,SVP-B,AOML/USIABP,NABOS,North
2021-09-10T22:59:57Z,1631314797,2021,23,0,253.9583,253.9583,89.955,-40.149,1025.2,35.95,-999.0,yes,yes,no,300234068485020,SVP-B,AOML/USIABP,NABOS,North
2021-09-11T00:00:00Z,1631318400,2021,0,0,254.0,254.0,89.952,-34.63,1024.9,35.95,-999.0,yes,yes,no,300234068485020,SVP-B,AOML/USIABP,NABOS,North
2021-09-11T01:00:02Z,1631322003,2021,1,0,254.0417,254.0417,89.948,-29.054,1024.7,35.95,-999.0,yes,yes,no,300234068485020,SVP-B,AOML/USIABP,NABOS,North
2021-09-11T01:59:57Z,1631325597,2021,2,0,254.0833,254.0833,89.943,-25.01,1024.3,35.95,-999.0,yes,yes,no,300234068485020,SVP-B,AOML/USIABP,NABOS,North
2021-09-11T03:00:00Z,1631329200,2021,3,0,254.125,254.125,89.937,-22.438,1024.0,35.95,-999.0,yes,yes,no,300234068485020,SVP-B,AOML/USIABP,NABOS,North
2021-09-11T04:00:02Z,1631332803,2021,4,0,254.1667,254.1667,89.931,-20.861,1023.7,35.95,-999.0,yes,yes,no,300234068485020,SVP-B,AOML/USIABP,NABOS,North
2021-09-11T04:59:57Z,1631336397,2021,5,0,254.2083,254.2083,89.925,-20.07,1023.6,35.95,-999.0,yes,yes,no,300234068485020,SVP-B,AOML/USIABP,NABOS,North
2021-09-11T06:00:00Z,1631340000,2021,6,0,254.25,254.25,89.921,-19.474,1023.5,35.95,-999.0,yes,yes,no,300234068485020,SVP-B,AOML/USIABP,NABOS,North
2021-09-11T07:00:02Z,1631343603,2021,7,0,254.2917,254.2917,89.917,-18.872,1023.6,35.95,-999.0,yes,yes,no,300234068485020,SVP-B,AOML/USIABP,NABOS,North
2021-09-11T07:59:57Z,1631347197,2021,8,0,254.3333,254.3333,89.914,-18.042,1023.6,-5.0,-999.0,yes,yes,no,300234068485020,SVP-B,AOML/USIABP,NABOS,North
2021-09-11T09:00:00Z,1631350800,2021,9,0,254.375,254.375,89.911,-16.734,1023.3,-4.82,-999.0,yes,yes,no,300234068485020,SVP-B,AOML/USIABP,NABOS,North
2021-09-11T10:00:02Z,1631354403,2021,10,0,254.4167,254.4167,89.908,-15.108,1023.2,-4.71,-999.0,yes,yes,no,300234068485020,SVP-B,AOML/USIABP,NABOS,North
2021-09-11T12:00:00Z,1631361600,2021,12,0,254.5,254.5,89.899,-11.575,1023.0,-4.26,-999.0,yes,yes,no,300234068485020,SVP-B,AOML/USIABP,NABOS,North
2021-09-11T13:00:02Z,1631365203,2021,13,0,254.5417,254.5417,89.894,-10.184,1022.7,-4.16,-999.0,yes,yes,no,300234068485020,SVP-B,AOML/USIABP,NABOS,North
2021-09-11T13:59:57Z,1631368797,2021,14,0,254.5833,254.5833,89.888,-9.187,1022.6,-4.26,-999.0,yes,yes,no,300234068485020,SVP-B,AOML/USIABP,NABOS,North
2021-09-11T15:00:00Z,1631372400,2021,15,0,254.625,254.625,89.881,-8.805,1022.3,-4.21,-999.0,yes,yes,no,300234068485020,SVP-B,AOML/USIABP,NABOS,North
2021-09-11T16:00:02Z,1631376003,2021,16,0,254.6667,254.6667,89.875,-8.825,1022.1,-4.25,-999.0,yes,yes,no,300234068485020,SVP-B,AOML/USIABP,NABOS,North
2021-09-11T16:59:57Z,1631379597,2021,17,0,254.7083,254.7083,89.87,-9.001,1021.9,-4.36,-999.0,yes,yes,no,300234068485020,SVP-B,AOML/USIABP,NABOS,North
2021-09-11T18:00:00Z,1631383200,2021,18,0,254.75,254.75,89.866,-9.274,1021.8,-4.67,-999.0,yes,yes,no,300234068485020,SVP-B,AOML/USIABP,NABOS,North
2021-09-11T19:00:02Z,1631386803,2021,19,0,254.7917,254.7917,89.863,-9.592,1021.6,-4.84,-999.0,yes,yes,no,300234068485020,SVP-B,AOML/USIABP,NABOS,North
2021-09-11T19:59:57Z,1631390397,2021,20,0,254.8333,254.8333,89.86,-9.556,1021.5,-4.48,-999.0,yes,yes,no,300234068485020,SVP-B,AOML/USIABP,NABOS,North
2021-09-11T21:00:00Z,1631394000,2021,21,0,254.875,254.875,89.858,-9.153,1021.5,-4.39,-999.0,yes,yes,no,300234068485020,SVP-B,AOML/USIABP,NABOS,North
2021-09-11T22:00:02Z,1631397603,2021,22,0,254.9167,254.9167,89.855,-8.55,1021.3,-4.39,-999.0,yes,yes,no,300234068485020,SVP-B,AOML/USIABP,NABOS,North
2021-09-11T22:59:57Z,1631401197,2021,23,0,254.9583,254.9583,89.852,-7.818,1021.1,-4.37,-999.0,yes,yes,no,300234068485020,SVP-B,AOML/USIABP,NABOS,North
2021-09-12T00:00:00Z,1631404800,2021,0,0,255.0,255.0,89.847,-7.096,1020.8,-4.12,-999.0,yes,yes,no,300234068485020,SVP-B,AOML/USIABP,NABOS,North
2021-09-12T01:00:02Z,1631408403,2021,1,0,255.0417,255.0417,89.842,-6.539,1020.5,-3.98,-999.0,yes,yes,no,300234068485020,SVP-B,AOML/USIABP,NABOS,North
2021-09-12T01:59:57Z,1631411997,2021,2,0,255.0833,255.0833,89.837,-6.225,1020.2,-3.74,-999.0,yes,yes,no,300234068485020,SVP-B,AOML/USIABP,NABOS,North
2021-09-12T03:00:00Z,1631415600,2021,3,0,255.125,255.125,89.832,-6.174,1019.9,-3.65,-999.0,yes,yes,no,300234068485020,SVP-B,AOML/USIABP,NABOS,North
2021-09-12T04:00:02Z,1631419203,2021,4,0,255.1667,255.1667,89.827,-6.352,1019.6,-3.5,-999.0,yes,yes,no,300234068485020,SVP-B,AOML/USIABP,NABOS,North
2021-09-12T04:59:57Z,1631422797,2021,5,0,255.2083,255.2083,89.824,-6.658,1019.3,-3.59,-999.0,yes,yes,no,300234068485020,SVP-B,AOML/USIABP,NABOS,North
2021-09-12T06:00:00Z,1631426400,2021,6,0,255.25,255.25,89.821,-6.94,1019.1,-3.46,-999.0,yes,yes,no,300234068485020,SVP-B,AOML/USIABP,NABOS,North
2021-09-12T07:00:02Z,1631430003,2021,7,0,255.2917,255.2917,89.819,-7.085,1019.0,-3.59,-999.0,yes,yes,no,300234068485020,SVP-B,AOML/USIABP,NABOS,North
2021-09-12T07:59:57Z,1631433597,2021,8,0,255.3333,255.3333,89.819,-7.024,1018.7,-3.36,-999.0,yes,yes,no,300234068485020,SVP-B,AOML/USIABP,NABOS,North
2021-09-12T09:00:00Z,1631437200,2021,9,0,255.375,255.375,89.818,-6.748,1018.4,-3.19,-999.0,yes,yes,no,300234068485020,SVP-B,AOML/USIABP,NABOS,North
2021-09-12T10:00:02Z,1631440803,2021,10,0,255.4167,255.4167,89.817,-6.244,1018.2,-3.93,-999.0,yes,yes,no,300234068485020,SVP-B,AOML/USIABP,NABOS,North
2021-09-12T10:59:57Z,1631444397,2021,11,0,255.4583,255.4583,89.816,-5.616,1017.8,35.95,-999.0,yes,yes,no,300234068485020,SVP-B,AOML/USIABP,NABOS,North
2021-09-12T12:00:00Z,1631448000,2021,12,0,255.5,255.5,89.813,-4.909,1017.6,35.95,-999.0,yes,yes,no,300234068485020,SVP-B,AOML/USIABP,NABOS,North
2021-09-12T13:00:02Z,1631451603,2021,13,0,255.5417,255.5417,89.81,-4.297,1017.2,35.95,-999.0,yes,yes,no,300234068485020,SVP-B,AOML/USIABP,NABOS,North
2021-09-12T13:59:57Z,1631455197,2021,14,0,255.5833,255.5833,89.807,-3.817,1017.1,35.95,-999.0,yes,yes,no,300234068485020,SVP-B,AOML/USIABP,NABOS,North
2021-09-12T15:00:00Z,1631458800,2021,15,0,255.625,255.625,89.804,-3.559,1016.8,35.95,-999.0,yes,yes,no,300234068485020,SVP-B,AOML/USIABP,NABOS,North
2021-09-12T16:00:02Z,1631462403,2021,16,0,255.6667,255.6667,89.801,-3.431,1016.2,35.95,-999.0,yes,yes,no,300234068485020,SVP-B,AOML/USIABP,NABOS,North
2021-09-12T16:59:57Z,1631465997,2021,17,0,255.7083,255.7083,89.8,-3.383,1016.0,35.95,-999.0,yes,yes,no,300234068485020,SVP-B,AOML/USIABP,NABOS,North
2021-09-12T18:00:00Z,1631469600,2021,18,0,255.75,255.75,89.799,-3.337,1015.9,35.95,-999.0,yes,yes,no,300234068485020,SVP-B,AOML/USIABP,NABOS,North
2021-09-12T19:00:02Z,1631473203,2021,19,0,255.7917,255.7917,89.799,-3.158,1015.6,35.95,-999.0,yes,yes,no,300234068485020,SVP-B,AOML/USIABP,NABOS,North
2021-09-12T19:59:57Z,1631476797,2021,20,0,255.8333,255.8333,89.8,-2.72,1015.4,35.95,-999.0,yes,yes,no,300234068485020,SVP-B,AOML/USIABP,NABOS,North
2021-09-12T21:00:00Z,1631480400,2021,21,0,255.875,255.875,89.801,-1.965,1015.1,35.95,-999.0,yes,yes,no,300234068485020,SVP-B,AOML/USIABP,NABOS,North
2021-09-12T22:00:02Z,1631484003,2021,22,0,255.9167,255.9167,89.802,-1.073,1015.0,35.95,-999.0,yes,yes,no,300234068485020,SVP-B,AOML/USIABP,NABOS,North
2021-09-12T22:59:57Z,1631487597,2021,23,0,255.9583,255.9583,89.802,-0.042,1014.6,35.95,-999.0,yes,yes,no,300234068485020,SVP-B,AOML/USIABP,NABOS,North
2021-09-13T00:00:00Z,1631491200,2021,0,0,256.0,256.0,89.801,0.933,1014.7,35.95,-999.0,yes,yes,no,300234068485020,SVP-B,AOML/USIABP,NABOS,North
2021-09-13T01:00:02Z,1631494803,2021,1,0,256.0417,256.0417,89.8,1.768,1014.2,35.95,-999.0,yes,yes,no,300234068485020,SVP-B,AOML/USIABP,NABOS,North
2021-09-13T01:59:57Z,1631498397,2021,2,0,256.0833,256.0833,89.797,2.263,1014.0,35.95,-999.0,yes,yes,no,300234068485020,SVP-B,AOML/USIABP,NABOS,North
2021-09-13T03:00:00Z,1631502000,2021,3,0,256.125,256.125,89.795,2.518,1013.8,35.95,-999.0,yes,yes,no,300234068485020,SVP-B,AOML/USIABP,NABOS,North
2021-09-13T04:00:02Z,1631505603,2021,4,0,256.1667,256.1667,89.794,2.508,1013.6,35.95,-999.0,yes,yes,no,300234068485020,SVP-B,AOML/USIABP,NABOS,North
2021-09-13T04:59:57Z,1631509197,2021,5,0,256.2083,256.2083,89.793,2.369,1013.5,35.95,-999.0,yes,yes,no,300234068485020,SVP-B,AOML/USIABP,NABOS,North
2021-09-13T06:00:00Z,1631512800,2021,6,0,256.25,256.25,89.793,2.248,1013.3,35.95,-999.0,yes,yes,no,300234068485020,SVP-B,AOML/USIABP,NABOS,North
2021-09-13T07:00:02Z,1631516403,2021,7,0,256.2917,256.2917,89.794,2.271,1013.1,35.95,-999.0,yes,yes,no,300234068485020,SVP-B,AOML/USIABP,NABOS,North
2021-09-13T07:59:57Z,1631519997,2021,8,0,256.3333,256.3333,89.796,2.516,1013.0,35.95,-999.0,yes,yes,no,300234068485020,SVP-B,AOML/USIABP,NABOS,North
2021-09-13T09:00:00Z,1631523600,2021,9,0,256.375,256.375,89.798,2.982,1012.7,35.95,-999.0,yes,yes,no,300234068485020,SVP-B,AOML/USIABP,NABOS,North
2021-09-13T10:00:02Z,1631527203,2021,10,0,256.4167,256.4167,89.8,3.745,1012.6,35.95,-999.0,yes,yes,no,300234068485020,SVP-B,AOML/USIABP,NABOS,North
2021-09-13T10:59:57Z,1631530797,2021,11,0,256.4583,256.4583,89.801,4.57,1012.5,-4.29,-999.0,yes,yes,no,300234068485020,SVP-B,AOML/USIABP,NABOS,North
2021-09-13T12:00:00Z,1631534400,2021,12,0,256.5,256.5,89.801,5.453,1012.5,-4.21,-999.0,yes,yes,no,300234068485020,SVP-B,AOML/USIABP,NABOS,North
2021-09-13T13:00:02Z,1631538003,2021,13,0,256.5417,256.5417,89.8,6.221,1012.4,-4.03,-999.0,yes,yes,no,300234068485020,SVP-B,AOML/USIABP,NABOS,North
2021-09-13T13:59:57Z,1631541597,2021,14,0,256.5833,256.5833,89.799,6.84,1012.2,-3.73,-999.0,yes,yes,no,300234068485020,SVP-B,AOML/USIABP,NABOS,North
2021-09-13T15:00:00Z,1631545200,2021,15,0,256.625,256.625,89.799,7.289,1012.1,-3.31,-999.0,yes,yes,no,300234068485020,SVP-B,AOML/USIABP,NABOS,North
2021-09-13T16:00:02Z,1631548803,2021,16,0,256.6667,256.6667,89.799,7.623,1011.9,-3.72,-999.0,yes,yes,no,300234068485020,SVP-B,AOML/USIABP,NABOS,North
2021-09-13T16:59:57Z,1631552397,2021,17,0,256.7083,256.7083,89.8,7.873,1011.8,-3.8,-999.0,yes,yes,no,300234068485020,SVP-B,AOML/USIABP,NABOS,North
2021-09-13T18:00:00Z,1631556000,2021,18,0,256.75,256.75,89.801,8.159,1011.5,-3.91,-999.0,yes,yes,no,300234068485020,SVP-B,AOML/USIABP,NABOS,North
2021-09-13T19:00:02Z,1631559603,2021,19,0,256.7917,256.7917,89.804,8.533,1011.3,-3.98,-999.0,yes,yes,no,300234068485020,SVP-B,AOML/USIABP,NABOS,North
2021-09-13T19:59:57Z,1631563197,2021,20,0,256.8333,256.8333,89.807,9.082,1011.3,-4.85,-999.0,yes,yes,no,300234068485020,SVP-B,AOML/USIABP,NABOS,North
2021-09-13T21:00:00Z,1631566800,2021,21,0,256.875,256.875,89.811,9.946,1011.5,35.95,-999.0,yes,yes,no,300234068485020,SVP-B,AOML/USIABP,NABOS,North
2021-09-13T22:00:02Z,1631570403,2021,22,0,256.9167,256.9167,89.813,11.044,1011.3,35.95,-999.0,yes,yes,no,300234068485020,SVP-B,AOML/USIABP,NABOS,North
2021-09-13T22:59:57Z,1631573997,2021,23,0,256.9583,256.9583,89.815,12.106,1011.0,35.95,-999.0,yes,yes,no,300234068485020,SVP-B,AOML/USIABP,NABOS,North
2021-09-14T00:00:00Z,1631577600,2021,0,0,257.0,257.0,89.816,13.069,1010.9,35.95,-999.0,yes,yes,no,300234068485020,SVP-B,AOML/USIABP,NABOS,North
2021-09-14T01:00:02Z,1631581203,2021,1,0,257.0417,257.0417,89.816,13.857,1010.2,35.95,-999.0,yes,yes,no,300234068485020,SVP-B,AOML/USIABP,NABOS,North
2021-09-14T01:59:57Z,1631584797,2021,2,0,257.0833,257.0833,89.816,14.429,1009.7,35.95,-999.0,yes,yes,no,300234068485020,SVP-B,AOML/USIABP,NABOS,North
2021-09-14T03:00:00Z,1631588400,2021,3,0,257.125,257.125,89.816,14.775,1009.5,35.95,-999.0,yes,yes,no,300234068485020,SVP-B,AOML/USIABP,NABOS,North
2021-09-14T04:00:02Z,1631592003,2021,4,0,257.1667,257.1667,89.817,14.961,1009.0,35.95,-999.0,yes,yes,no,300234068485020,SVP-B,AOML/USIABP,NABOS,North
2021-09-14T04:59:57Z,1631595597,2021,5,0,257.2083,257.2083,89.819,15.207,1008.7,35.95,-999.0,yes,yes,no,300234068485020,SVP-B,AOML/USIABP,NABOS,North
2021-09-14T06:00:00Z,1631599200,2021,6,0,257.25,257.25,89.822,15.595,1008.5,35.95,-999.0,yes,yes,no,300234068485020,SVP-B,AOML/USIABP,NABOS,North
2021-09-14T07:00:02Z,1631602803,2021,7,0,257.2917,257.2917,89.826,16.202,1008.3,35.95,-999.0,yes,yes,no,300234068485020,SVP-B,AOML/USIABP,NABOS,North
2021-09-14T07:59:57Z,1631606397,2021,8,0,257.3333,257.3333,89.83,17.077,1008.0,35.95,-999.0,yes,yes,no,300234068485020,SVP-B,AOML/USIABP,NABOS,North
2021-09-14T09:00:00Z,1631610000,2021,9,0,257.375,257.375,89.834,18.184,1007.8,35.95,-999.0,yes,yes,no,300234068485020,SVP-B,AOML/USIABP,NABOS,North
2021-09-14T10:00:02Z,1631613603,2021,10,0,257.4167,257.4167,89.837,19.476,1007.2,35.95,-999.0,yes,yes,no,300234068485020,SVP-B,AOML/USIABP,NABOS,North
2021-09-14T12:00:00Z,1631620800,2021,12,0,257.5,257.5,89.84,21.841,1006.3,35.95,-999.0,yes,yes,no,300234068485020,SVP-B,AOML/USIABP,NABOS,North
2021-09-14T13:00:02Z,1631624403,2021,13,0,257.5417,257.5417,89.84,22.766,1005.8,-4.75,-999.0,yes,yes,no,300234068485020,SVP-B,AOML/USIABP,NABOS,North
2021-09-14T13:59:57Z,1631627997,2021,14,0,257.5833,257.5833,89.839,23.434,1005.4,-4.9,-999.0,yes,yes,no,300234068485020,SVP-B,AOML/USIABP,NABOS,North
2021-09-14T15:00:00Z,1631631600,2021,15,0,257.625,257.625,89.838,23.827,1005.2,35.95,-999.0,yes,yes,no,300234068485020,SVP-B,AOML/USIABP,NABOS,North
2021-09-14T16:00:02Z,1631635203,2021,16,0,257.6667,257.6667,89.838,24.07,1005.0,35.95,-999.0,yes,yes,no,300234068485020,SVP-B,AOML/USIABP,NABOS,North
2021-09-14T16:59:57Z,1631638797,2021,17,0,257.7083,257.7083,89.838,24.35,1004.7,35.95,-999.0,yes,yes,no,300234068485020,SVP-B,AOML/USIABP,NABOS,North
2021-09-14T18:00:00Z,1631642400,2021,18,0,257.75,257.75,89.838,24.896,1004.5,35.95,-999.0,yes,yes,no,300234068485020,SVP-B,AOML/USIABP,NABOS,North
2021-09-14T19:00:02Z,1631646003,2021,19,0,257.7917,257.7917,89.84,25.858,1004.5,35.95,-999.0,yes,yes,no,300234068485020,SVP-B,AOML/USIABP,NABOS,North
2021-09-14T19:59:57Z,1631649597,2021,20,0,257.8333,257.8333,89.84,27.205,1004.6,35.95,-999.0,yes,yes,no,300234068485020,SVP-B,AOML/USIABP,NABOS,North
2021-09-14T21:00:00Z,1631653200,2021,21,0,257.875,257.875,89.84,28.695,1004.9,35.95,-999.0,yes,yes,no,300234068485020,SVP-B,AOML/USIABP,NABOS,North
2021-09-14T22:00:02Z,1631656803,2021,22,0,257.9167,257.9167,89.839,30.348,1005.1,35.95,-999.0,yes,yes,no,300234068485020,SVP-B,AOML/USIABP,NABOS,North
2021-09-14T22:59:57Z,1631660397,2021,23,0,257.9583,257.9583,89.837,32.007,1005.6,35.95,-999.0,yes,yes,no,300234068485020,SVP-B,AOML/USIABP,NABOS,North
2021-09-15T00:00:00Z,1631664000,2021,0,0,258.0,258.0,89.833,33.621,1006.3,35.95,-999.0,yes,yes,no,300234068485020,SVP-B,AOML/USIABP,NABOS,North
2021-09-15T01:00:02Z,1631667603,2021,1,0,258.0417,258.0417,89.828,35.123,1006.8,35.95,-999.0,yes,yes,no,300234068485020,SVP-B,AOML/USIABP,NABOS,North
2021-09-15T01:59:57Z,1631671197,2021,2,0,258.0833,258.0833,89.823,36.305,1007.2,35.95,-999.0,yes,yes,no,300234068485020,SVP-B,AOML/USIABP,NABOS,North
2021-09-15T03:00:00Z,1631674800,2021,3,0,258.125,258.125,89.818,37.327,1007.7,35.95,-999.0,yes,yes,no,300234068485020,SVP-B,AOML/USIABP,NABOS,North
2021-09-15T04:00:02Z,1631678403,2021,4,0,258.1667,258.1667,89.814,38.178,1008.0,35.95,-999.0,yes,yes,no,300234068485020,SVP-B,AOML/USIABP,NABOS,North
2021-09-15T04:59:57Z,1631681997,2021,5,0,258.2083,258.2083,89.81,38.937,1008.5,35.95,-999.0,yes,yes,no,300234068485020,SVP-B,AOML/USIABP,NABOS,North
2021-09-15T06:00:00Z,1631685600,2021,6,0,258.25,258.25,89.808,39.785,1009.1,35.95,-999.0,yes,yes,no,300234068485020,SVP-B,AOML/USIABP,NABOS,North
2021-09-15T07:00:02Z,1631689203,2021,7,0,258.2917,258.2917,89.807,40.736,1009.8,35.95,-999.0,yes,yes,no,300234068485020,SVP-B,AOML/USIABP,NABOS,North
2021-09-15T07:59:57Z,1631692797,2021,8,0,258.3333,258.3333,89.806,42.017,1010.2,35.95,-999.0,yes,yes,no,300234068485020,SVP-B,AOML/USIABP,NABOS,North
2021-09-15T09:00:00Z,1631696400,2021,9,0,258.375,258.375,89.805,43.502,1010.6,35.95,-999.0,yes,yes,no,300234068485020,SVP-B,AOML/USIABP,NABOS,North
2021-09-15T10:00:02Z,1631700003,2021,10,0,258.4167,258.4167,89.802,45.026,1011.1,35.95,-999.0,yes,yes,no,300234068485020,SVP-B,AOML/USIABP,NABOS,North